Home   Weather   Montreal   Past weeks

Flag for Canada Past Weather in Montreal, Quebec, Canada — Yesterday and Last 2 Weeks

Now
27 °F

Light snow. More clouds than sun.


Feels Like: 18 °F
Forecast: N/A
Wind: 8 mph from North

Location: Montreal - Pierre Elliot Trudeau International Aiport

Current Time: Dec 5, 2016 at 3:59:04 pm

Latest Report: Dec 5, 2016 at 3:00 pm


Visibility: 2 mi

Pressure: 29.89 "Hg

Humidity: 86%

Dew Point: 23 °F

Location of MontrealLocation

Past Weather in Montreal — Graph

°F

Montreal Temperature Yesterday

Maximum temperature yesterday: 34 °F (at 1:00 pm)
Minimum temperature yesterday: 27 °F (at 8:00 am)
Average temperature yesterday: 30 °F

High & Low Weather Summary for the Past Weeks

 TemperatureHumidityPressure
High48 °F (Dec 1, 7:00 am)100% (Nov 20, 4:00 pm)30.35 "Hg (Nov 20, 4:00 pm)
Low25 °F (Dec 5, 6:00 am)51% (Dec 4, 1:00 pm)29.21 "Hg (Nov 20, 10:00 pm)
Average33 °F83%29.94 "Hg
* Reported Nov 20 2:00 pm — Dec 5 2:00 pm, Montreal, Weather by CustomWeather, © 2016

Note: Actual official high and low records may vary slightly from our data, if they occured in-between our weather recording intervals... More about our weather records

Advertising

Montreal Weather History for the Previous 24 Hours

Scroll right to see more
 ConditionsComfort  
Time TempWeatherWind HumidityBarometerVisibility
2:00 pm
Mon, Dec 5
27 °FLight snow. More clouds than sun.10 mph86%29.86 "Hg1 mi
1:48 pm27 °FLight snow. Low clouds.10 mph93%29.85 "Hg2 mi
1:00 pm28 °FLight snow. Overcast.10 mph86%29.85 "Hg2 mi
12:00 pm27 °FLight snow. Mostly cloudy.10 mph93%29.85 "Hg1 mi
11:00 am28 °FChilly.6 mph86%29.88 "Hg1 mi
10:00 am27 °FChilly.9 mph86%29.90 "Hg1 mi
9:00 am25 °FLight snow. Overcast.12 mph93%29.93 "Hg1 mi
8:00 am25 °FLight snow. Mostly cloudy.12 mph86%29.94 "Hg5 mi
7:00 am25 °FLight snow. Mostly cloudy.12 mph86%29.98 "Hg12 mi
6:00 am25 °FOvercast.8 mph80%30.01 "Hg15 mi
5:00 am27 °FOvercast.8 mph74%30.02 "Hg15 mi
4:00 am27 °FOvercast.6 mph74%30.04 "Hg15 mi
3:00 am27 °FOvercast.7 mph69%30.06 "Hg15 mi
2:00 am27 °FPassing clouds.8 mph74%30.09 "Hg15 mi
1:00 am27 °FPassing clouds.9 mph80%30.11 "Hg15 mi
12:00 am27 °FPassing clouds.5 mph80%30.14 "Hg15 mi
11:00 pm
Sun, Dec 4
27 °FPassing clouds.5 mph74%30.16 "Hg15 mi
10:00 pm28 °FPassing clouds.8 mph69%30.17 "Hg15 mi
9:00 pm28 °FPassing clouds.8 mph74%30.18 "Hg15 mi
8:00 pm28 °FPassing clouds.5 mph74%30.22 "Hg15 mi
7:00 pm28 °FPassing clouds.3 mph74%30.23 "Hg15 mi
6:00 pm30 °FPassing clouds.6 mph69%30.24 "Hg15 mi
5:00 pm30 °FPassing clouds.6 mph64%30.24 "Hg15 mi
4:00 pm32 °FScattered clouds.6 mph60%30.25 "Hg30 mi
3:00 pm34 °FPassing clouds.5 mph51%30.25 "Hg30 mi
Weather by CustomWeather, © 2016

See weather overviewHow to use our weather pages